User: anonymous   Login
Location: Killam
(52.7910°N, 111.8608°W)
Time: 17:28:43
(UTC+00:00)
Language:

PAYLOAD H - Orbit

View from above orbital plane
View from above orbital plane
View from above satellite
View from above satellite

Ground track
Ground track

The orbit data is extracted from the following two-line orbital elements,

1 27847U 03031H   24148.71963200  .00000380  00000-0  18800-3 0  9993
2 27847  98.6880 155.4078 0009427 173.1193 187.0116 14.22999283 84966
Epoch (UTC): 27 May 2024 17:16:16
Eccentricity: 0.0009427
inclination: 98.6880°
perigee height: 808 km
apogee height: 822 km
right ascension of ascending node: 155.4078°
argument of perigee: 173.1193°
revolutions per day: 14.22999283
mean anomaly at epoch: 187.0116°
orbit number at epoch: 8496

The dashed part of the orbit path shows where the satellite is in the earth's shadow,  

DLR